Weather History for Ft Riley, KS

Change the Weather History Date:

Tuesday, December 31, 2013

  Actual Average (KMHK) Record (KMHK)
Temperature  
Mean Temperature 32 °F 28 °F  
Max Temperature 53 °F 40 °F 62 °F (2011)
Min Temperature 12 °F 17 °F 1 °F (2001)
Degree Days  
Heating Degree Days 32 37  
Month to date heating degree days 1067  
Since 1 July heating degree days 2141  
Cooling Degree Days 0 0  
Month to date cooling degree days 0  
Year to date cooling degree days 1362  
Moisture  
Dew Point 22 °F    
Average Humidity 70    
Maximum Humidity 99    
Minimum Humidity 30    
Precipitation  
Precipitation 0.26 in 0.02 in 0.14 in (2012)
Month to date precipitation 1.02  
Year to date precipitation 32.55  
Sea Level Pressure  
Sea Level Pressure 30.15 in    
Wind  
Wind Speed 6 mph (SW)    
Max Wind Speed 24 mph    
Max Gust Speed 37 mph    
Visibility 10 miles    
Events      
T = Trace of Precipitation, MM = Missing Value Source: NWS Daily Summary

Daily Weather History Graph

Daily Weather History Graph

Search for Another Location

Airport:

Trip Planner

Search our weather history database for the weather conditions in past years. The results will help you decide how hot, cold, wet, or windy it might be!

Date:

Astronomy

Dec. 31, 2013 Rise Set
Actual Time 7:46 AM CST 5:14 PM CST
Civil Twilight 7:16 AM CST 5:44 PM CST
Nautical Twilight 6:42 AM CST 6:18 PM CST
Astronomical Twilight 6:10 AM CST 6:50 PM CST
Moon 6:40 AM CST (12/31) 4:51 PM CST (12/31)
Length of Visible Light 10h 28m
Length of Day
9h 28m
Waning Crescent, 1% of the Moon is Illuminated
Dec 31
Waning Crescent
Jan 1
New
Jan 7
First Quarter
Jan 15
Full
Jan 23
Last Quarter

Hourly Weather History & Observations

Time (CST) Temp. Windchill Dew Point Humidity Pressure Visibility Wind Dir Wind Speed Gust Speed Precip Events Conditions
12:58 AM 18.1 °F - 17.8 °F 98% 30.36 in 10.0 mi Calm Calm - N/A   Clear
1:58 AM 17.8 °F - 17.6 °F 99% 30.35 in 10.0 mi Calm Calm - N/A   Clear
2:58 AM 16.7 °F - 16.3 °F 98% 30.32 in 10.0 mi North 2.3 mph - N/A   Clear
3:58 AM 14.7 °F 5.9 °F 14.5 °F 99% 30.29 in 10.0 mi North 5.8 mph - N/A   Clear
4:58 AM 14.5 °F - 14.4 °F 99% 30.27 in 10.0 mi NNE 1.2 mph - N/A   Clear
5:58 AM 15.1 °F - 14.9 °F 99% 30.27 in 10.0 mi North 2.3 mph - N/A   Clear
6:58 AM 13.1 °F - 12.7 °F 98% 30.26 in 10.0 mi NNE 2.3 mph - N/A   Clear
7:58 AM 12.9 °F 6.9 °F 12.6 °F 98% 30.22 in 10.0 mi NNE 3.5 mph - N/A   Clear
8:58 AM 18.5 °F - 18.3 °F 99% 30.22 in 10.0 mi NNE 2.3 mph - N/A   Clear
9:58 AM 29.7 °F 24.7 °F 27.5 °F 92% 30.22 in 10.0 mi WSW 4.6 mph - N/A   Clear
10:58 AM 45.0 °F 37.1 °F 26.4 °F 48% 30.17 in 10.0 mi SSW 19.6 mph 24.2 mph N/A   Clear
11:58 AM 49.6 °F - 25.7 °F 39% 30.11 in 10.0 mi SSW 21.9 mph 36.8 mph N/A   Clear
12:58 PM 51.8 °F - 25.3 °F 36% 30.05 in 10.0 mi SSW 24.2 mph 35.7 mph 0.12 in   Clear
1:58 PM 52.9 °F - 23.0 °F 31% 30.02 in 10.0 mi South 23.0 mph 36.8 mph 0.11 in   Clear
2:58 PM 53.6 °F - 22.8 °F 30% 30.02 in 10.0 mi SSW 21.9 mph 28.8 mph 0.03 in   Clear
3:58 PM 52.5 °F - 25.2 °F 35% 30.04 in 10.0 mi SSW 16.1 mph - N/A   Clear
4:58 PM 49.5 °F - 25.3 °F 39% 30.05 in 10.0 mi SSW 16.1 mph - N/A   Clear
5:58 PM 44.2 °F 39.7 °F 25.2 °F 47% 30.04 in 10.0 mi South 8.1 mph - N/A   Clear
6:58 PM 41.0 °F 35.2 °F 26.1 °F 55% 30.06 in 10.0 mi SSW 9.2 mph - N/A   Clear
7:58 PM 39.7 °F - 25.3 °F 56% 30.08 in 10.0 mi Variable 1.2 mph - N/A   Clear
8:58 PM 36.1 °F 31.4 °F 26.2 °F 67% 30.05 in 10.0 mi WSW 5.8 mph - N/A   Clear
9:58 PM 36.0 °F 31.1 °F 26.4 °F 68% 30.06 in 10.0 mi SW 5.8 mph - N/A   Clear
10:58 PM 34.7 °F 31.8 °F 26.2 °F 71% 30.05 in 10.0 mi South 3.5 mph - N/A   Clear
11:58 PM 31.6 °F 28.3 °F 26.6 °F 82% 30.06 in 10.0 mi Variable 3.5 mph - N/A   Clear